• Join FlightAware (Why Join?)
  • Login
  • US Flag GB Flag 
09:49 EDT


 

Airport Tracker/Info


-or-


 

Live Flight TrackerFlight Track Log ✈ SWA1044 ✈ 10-Apr-2013 ✈ KMCI - KMSY

Flight Track Log - Related Links

Times and Time Zones

All times are in EDT time to prevent confusion due to time zone crossing. See the SWA1044 flight status page for this flight to view local times or setup timezone preferences in your user account.

Time Position Orientation Groundspeed Altitude Reporting Facility
EDT Latitude Longitude Course Direction KTS MPH feet Rate Location/Type
10:03 39.3661 -94.6839 35° Northeast 207 238 4,300  Level Kansas City Center
10:04 39.4164 -94.6378 35° Northeast 231 266 7,700 2,880 Climbing Kansas City Center
10:05 39.4542 -94.5592 58° Northeast 272 313 10,400 3,180 Climbing Kansas City Center
10:06 39.4375 -94.4567 102° East 265 305 14,200 2,880 Climbing Kansas City Center
10:07 39.4103 -94.3678 112° Southeast 277 319 16,300 2,460 Climbing Kansas City Center
10:08 39.3692 -94.2447 113° Southeast 331 381 19,300 2,820 Climbing Kansas City Center
10:09 39.3311 -94.1356 114° Southeast 345 397 22,100 2,100 Climbing Kansas City Center
10:10 39.2442 -94.0711 150° Southeast 330 380 23,700 1,620 Climbing Kansas City Center
10:11 39.1528 -94.0294 161° South 357 411 25,500 1,920 Climbing Kansas City Center
10:12 39.0569 -93.9864 161° South 375 432 27,700 2,220 Climbing Kansas City Center
10:13 38.9414 -93.9367 161° South 388 447 30,100 2,220 Climbing Kansas City Center
10:14 38.8442 -93.8950 162° South 384 442 32,200 2,100 Climbing Kansas City Center
10:15 38.7328 -93.8475 162° South 378 435 34,500 1,860 Climbing Kansas City Center
10:16 38.6408 -93.8061 161° South 368 423 36,100 1,200 Climbing Kansas City Center
10:17 38.5467 -93.7664 162° South 369 425 37,000 420 Climbing Kansas City Center
10:18 38.4381 -93.7175 161° South 371 427 37,000 300 Level Kansas City Center
10:19 38.3347 -93.6736 162° South 382 440 37,700 900 Climbing Kansas City Center
10:20 38.2267 -93.6281 162° South 399 459 38,900 600 Climbing Kansas City Center
10:21 38.1211 -93.5833 162° South 401 461 39,000  Climbing Kansas City Center
10:22 38.0147 -93.5372 161° South 403 464 39,000  Level Kansas City Center
10:23 37.9078 -93.4933 162° South 403 464 39,000  Level Kansas City Center
10:24 37.7789 -93.4369 161° South 406 467 39,000  Level Kansas City Center
10:25 37.6714 -93.3922 162° South 406 467 39,000  Level Kansas City Center
10:26 37.5631 -93.3464 161° South 408 470 39,000  Level Kansas City Center
10:27 37.4525 -93.3017 162° South 413 475 39,000  Level Kansas City Center
10:28 37.3375 -93.2503 160° South 425 489 39,000  Level Kansas City Center
10:29 37.2258 -93.2044 162° South 425 489 39,000  Level Kansas City Center
10:30 37.1142 -93.1578 162° South 422 486 39,000  Level Kansas City Center
10:31 37.0014 -93.1125 162° South 424 488 39,000  Level Kansas City Center
10:32 36.8892 -93.0661 162° South 423 487 39,000  Level Kansas City Center
10:33 36.7950 -93.0308 163° South 434 499 39,000  Level Memphis Center
10:34 36.6792 -92.9831 162° South 434 499 39,000  Level Memphis Center
10:35 36.5697 -92.9356 161° South 434 499 39,000  Level Memphis Center
10:36 36.4519 -92.8878 162° South 434 499 39,000  Level Memphis Center
10:37 36.3383 -92.8431 162° South 434 499 39,000  Level Memphis Center
10:38 36.2225 -92.7958 162° South 434 499 39,000  Level Memphis Center
10:39 36.1044 -92.7486 162° South 434 499 39,000  Level Memphis Center
10:40 35.9886 -92.6992 161° South 434 499 39,000  Level Memphis Center
10:41 35.8603 -92.6469 162° South 434 499 39,000  Level Memphis Center
10:42 35.7444 -92.6003 162° South 434 499 39,000  Level Memphis Center
10:43 35.6264 -92.5536 162° South 439 505 39,000  Level Memphis Center
10:44 35.5083 -92.5044 161° South 439 505 39,000  Level Memphis Center
10:45 35.3922 -92.4583 162° South 439 505 39,000  Level Memphis Center
10:46 35.2742 -92.4147 163° South 439 505 39,000  Level Memphis Center
10:47 35.1561 -92.3686 162° South 439 505 39,000  Level Memphis Center
10:48 35.0419 -92.3203 161° South 439 505 39,000  Level Memphis Center
10:49 34.9258 -92.2769 163° South 434 499 39,000  Level Memphis Center
10:50 34.8097 -92.2314 162° South 439 505 39,000  Level Memphis Center
10:51 34.6936 -92.1833 161° South 439 505 39,000  Level Memphis Center
10:52 34.5797 -92.1228 156° South 439 505 39,000  Level Memphis Center
10:53 34.4700 -92.0575 154° Southeast 444 511 39,000  Level Memphis Center
10:54 34.3625 -91.9900 153° Southeast 444 511 39,000  Level Memphis Center
10:55 34.2483 -91.9303 157° South 444 511 39,000  Level Memphis Center
10:56 34.1386 -91.8628 153° Southeast 438 504 39,000  Level Memphis Center
10:57 34.0411 -91.8061 154° Southeast 438 504 39,000  Level Memphis Center
10:58 33.9292 -91.7392 154° Southeast 443 510 39,000  Level Memphis Center
10:59 33.8111 -91.6747 156° South 448 516 39,000  Level Memphis Center
11:00 33.7011 -91.6106 154° Southeast 448 516 39,000  Level Memphis Center
11:01 33.5889 -91.5442 154° Southeast 448 516 39,000  Level Memphis Center
11:02 33.4789 -91.4831 155° Southeast 441 507 39,000  Level Memphis Center
11:03 33.3586 -91.4117 154° Southeast 441 507 39,000  Level Memphis Center
11:04 33.2506 -91.3483 154° Southeast 441 507 39,000  Level Memphis Center
11:05 33.1383 -91.2850 155° Southeast 441 507 39,000  Level Memphis Center
11:06 33.0281 -91.2219 154° Southeast 441 507 39,000  Level Memphis Center
11:07 32.9178 -91.1567 154° Southeast 441 507 39,000  Level Memphis Center
11:08 32.8056 -91.0964 156° South 441 507 39,000  Level Memphis Center
11:09 32.6931 -91.0311 154° Southeast 441 507 39,000  Level Memphis Center
11:10 32.5850 -90.9711 155° Southeast 441 507 39,000  Level Memphis Center
11:11 32.4744 -90.9089 155° Southeast 441 507 39,000  Level Memphis Center
11:12 32.3642 -90.8442 154° Southeast 441 507 39,000  Level Memphis Center
11:13 32.2494 -90.7822 155° Southeast 441 507 39,000 -840 Level Memphis Center
11:14 32.1411 -90.7228 155° Southeast 441 507 37,400 -2,220 Descending Memphis Center
11:15 32.0708 -90.6811 153° Southeast 445 512 35,400 -2,820 Descending Houston Center
11:16 31.9533 -90.6153 155° Southeast 465 535 32,700 -2,820 Descending Houston Center
11:17 31.8378 -90.5519 155° Southeast 459 528 29,600 -2,280 Descending Houston Center
11:18 31.7286 -90.4903 154° Southeast 441 507 28,000 -960 Descending Houston Center
11:19 31.6228 -90.4331 155° Southeast 421 484 27,700 -660 Descending Houston Center
11:20 31.5175 -90.3750 155° Southeast 419 482 26,700 -1,080 Descending Houston Center
11:21 31.3964 -90.3086 155° Southeast 403 464 25,500 -840 Descending Houston Center
11:22 31.2950 -90.2583 157° South 396 456 25,000 -300 Descending Houston Center
11:23 31.1869 -90.2503 176° South 388 447 25,000 -360 Level Houston Center
11:24 31.0797 -90.2408 176° South 387 445 24,300 -2,160 Descending Houston Center
11:25 30.9725 -90.2342 177° South 384 442 20,500 -4,020 Descending Houston Center
11:26 30.8325 -90.2231 176° South 418 481 16,000 -3,300 Descending Houston Center
11:27 30.7208 -90.2156 177° South 406 467 13,700 -2,340 Descending Houston Center
11:27 30.6872 -90.2106 173° South 387 445 13,000 -1,980 Descending Houston Center
11:28 30.6214 -90.1961 169° South 370 426 11,700 -1,800 Descending Houston Center
11:29 30.5269 -90.1767 170° South 350 403 9,800 -1,500 Descending Houston Center
11:30 30.4564 -90.1197 145° Southeast 318 366 8,700 -1,500 Descending Houston Center
11:31 30.3733 -90.0572 147° Southeast 253 291 6,400 -1,800 Descending Houston Center
11:32 30.3297 -90.0986 219° Southwest 258 297 5,000 -1,320 Descending Houston Center
11:33 30.2739 -90.1578 222° Southwest 243 280 3,900 -960 Descending Houston Center
11:34 30.2161 -90.1769 196° South 183 211 3,000 -600 Descending Houston Center
11:35 30.1833 -90.1881 196° South 190 219 2,700 -240 Descending Houston Center
11:36 30.1403 -90.2022 196° South 156 180 2,600 -300 Descending Houston Center
11:37 30.1044 -90.2128 194° South 133 153 2,100 -660 Descending Houston Center
11:38 30.0733 -90.2236 197° South 129 148 1,400 -720 Descending Houston Center
11:39 30.0381 -90.2347 195° South 127 146 800 -480 Descending Houston Center
11:41 29.9969 -90.2497 198° South 128 147 400 -360 Descending Houston Center